Home   Weather   Peshawar   Past weeks

Flag for Pakistan Past Weather in Peshawar, Pakistan — Yesterday and Last 2 Weeks

Now
91 °F

Haze.


Feels Like: 99 °F
Forecast: 67 / 95 °F
Wind: 9 mph from Northeast

Location: Peshawar Airport

Current Time: Sep 25, 2016 at 1:52:13 PM

Latest Report: Sep 25, 2016 at 1:00 PM


Visibility: 2 mi

Pressure: 29.74 "Hg

Humidity: 52%

Dew Point: 72 °F

Location of PeshawarLocation

Past Weather in Peshawar — Graph

°F

Peshawar Temperature Yesterday

Maximum temperature yesterday: 91 °F (at 3:00 PM)
Minimum temperature yesterday: 79 °F (at 3:00 AM)
Average temperature yesterday: 85 °F

High & Low Weather Summary for the Past Weeks

 TemperatureHumidityPressure
High99 °F (Sep 10, 3:00 PM)83% (Sep 25, 6:00 AM)29.92 "Hg (Sep 25, 6:00 AM)
Low72 °F (Sep 14, 5:00 AM)36% (Sep 13, 1:00 PM)29.59 "Hg (Sep 10, 3:00 PM)
Average86 °F56%29.71 "Hg
* Reported Sep 10 12:00 PM — Sep 25 12:00 PM, Peshawar, Weather by CustomWeather, © 2016

Note: Actual official high and low records may vary slightly from our data, if they occured in-between our weather recording intervals... More about our weather records

Advertising

Peshawar Weather History for the Previous 24 Hours

Scroll right to see more
 ConditionsComfort  
Time TempWeatherWind HumidityBarometerVisibility
12:00 PM
Sun, Sep 25
90 °FHaze.7 mph55%29.77 "Hg2 mi
11:00 AM86 °FHaze.5 mph59%29.80 "Hg2 mi
10:00 AM84 °FHaze.5 mph62%29.80 "Hg1 mi
9:00 AM82 °FScattered clouds.5 mph66%29.80 "Hg1 mi
8:30 AM79 °FHaze.7 mph74%29.77 "Hg1 mi
8:00 AM79 °FHaze.7 mph74%29.77 "Hg1 mi
7:30 AM77 °FHaze.7 mph74%29.74 "Hg1 mi
7:00 AM77 °FHaze.7 mph74%29.74 "Hg1 mi
6:30 AM77 °FHaze.7 mph83%29.71 "Hg1 mi
6:00 AM77 °FHaze.7 mph83%29.71 "Hg1 mi
5:30 AM79 °FHaze.5 mph74%29.71 "Hg2 mi
4:59 AM79 °FHaze.5 mph74%29.71 "Hg2 mi
4:30 AM79 °FHaze.5 mph74%29.68 "Hg2 mi
4:00 AM79 °FHaze.5 mph74%29.68 "Hg2 mi
3:30 AM79 °FHaze.7 mph74%29.68 "Hg2 mi
3:00 AM79 °FHaze.7 mph74%29.68 "Hg2 mi
2:00 AM81 °FPassing clouds.7 mph70%29.68 "Hg2 mi
1:00 AM82 °FPassing clouds.7 mph79%29.68 "Hg2 mi
12:00 AM84 °FPassing clouds.7 mph66%29.68 "Hg2 mi
11:00 PM
Sat, Sep 24
84 °FHaze.5 mph66%29.65 "Hg2 mi
10:30 PM84 °FHaze.7 mph66%29.68 "Hg2 mi
10:00 PM84 °FHaze.7 mph66%29.68 "Hg2 mi
9:35 PM84 °FHaze.7 mph66%29.68 "Hg2 mi
9:00 PM84 °FHaze.7 mph66%29.68 "Hg2 mi
8:30 PM84 °FHaze.12 mph66%29.65 "Hg2 mi
8:00 PM84 °FHaze.12 mph66%29.65 "Hg2 mi
7:30 PM84 °FPassing clouds.12 mph62%29.65 "Hg2 mi
7:00 PM84 °FPassing clouds.12 mph62%29.65 "Hg2 mi
6:30 PM86 °FPassing clouds.16 mph62%29.62 "Hg2 mi
6:00 PM86 °FScattered clouds.16 mph62%29.62 "Hg2 mi
5:30 PM88 °FScattered clouds.16 mph59%29.62 "Hg2 mi
5:00 PM88 °FScattered clouds.16 mph59%29.62 "Hg2 mi
4:30 PM90 °FScattered clouds.16 mph63%29.65 "Hg2 mi
4:00 PM90 °FScattered clouds.16 mph63%29.65 "Hg2 mi
3:30 PM91 °FHaze.16 mph56%29.65 "Hg2 mi
3:00 PM91 °FHaze.16 mph56%29.65 "Hg2 mi
2:30 PM90 °FHaze.16 mph59%29.68 "Hg2 mi
2:00 PM90 °FHaze.16 mph59%29.68 "Hg2 mi
1:30 PM88 °FHaze.16 mph62%29.74 "Hg2 mi
1:00 PM88 °FHaze.16 mph62%29.74 "Hg2 mi
Weather by CustomWeather, © 2016

See weather overviewHow to use our weather pages